QTR037 OTHH-LFPG

Flight info

Callsign QTR037
Flight time 5h 30m
Altitude 36000
Route DCT DATRI L564 MIGMA/N0493F280 M550 MEVDO Y511 ITRUX/N0489F360 Y511 PMA Z712 WEJ L677 PASAM/N0478F380 L677 CVO L617 TANSA UL613 KOR DCT DIMIS DCT VAKSU DCT LABIN/N0473F400 DCT OTKEK DCT VAKON DCT SRN DCT INVOP/N0478F390 DCT TERSI/N0477F400 DCT AOSTA DCT ORSUD DCT MOLUS DCT UNKIR/N0479F380 DCT GIVRI DCT TINIL TINIL9W
Aircraft A388/J-V/N

Departure

Time 2026-05-06 11:03
Airport Hamad International Airport (OTHH)

Arrival

Time 2026-05-06 16:34
Airport Charles de Gaulle International Airport (LFPG)
Time Latitude Longitude Altitude Speed Heading
2026-05-06 10:44 25.26471 51.61320 35 ft 0 kts 248°
2026-05-06 10:51 25.26471 51.61321 35 ft 1 kts 248°
2026-05-06 10:52 25.26474 51.61328 35 ft 1 kts 248°
2026-05-06 10:52 25.26477 51.61338 34 ft 2 kts 248°
2026-05-06 10:52 25.26481 51.61348 33 ft 3 kts 248°
2026-05-06 10:52 25.26494 51.61371 31 ft 3 kts 226°
2026-05-06 10:53 25.26515 51.61384 33 ft 4 kts 195°
2026-05-06 10:53 25.26534 51.61384 35 ft 0 kts 172°
2026-05-06 10:55 25.26533 51.61384 35 ft 1 kts 172°
2026-05-06 10:56 25.26519 51.61389 35 ft 4 kts 155°
2026-05-06 10:56 25.26473 51.61412 35 ft 10 kts 156°
2026-05-06 10:56 25.26411 51.61459 35 ft 11 kts 112°
2026-05-06 10:56 25.26408 51.61543 35 ft 11 kts 75°
2026-05-06 10:57 25.26438 51.61628 35 ft 12 kts 66°
2026-05-06 10:57 25.26470 51.61720 35 ft 12 kts 70°
2026-05-06 10:57 25.26502 51.61808 35 ft 13 kts 68°
2026-05-06 10:57 25.26537 51.61903 34 ft 14 kts 68°
2026-05-06 10:58 25.26560 51.62003 33 ft 13 kts 111°
2026-05-06 10:58 25.26492 51.62057 33 ft 14 kts 159°
2026-05-06 10:58 25.26394 51.62098 34 ft 16 kts 156°
2026-05-06 10:58 25.26286 51.62151 34 ft 18 kts 156°
2026-05-06 10:59 25.26161 51.62206 35 ft 20 kts 159°
2026-05-06 10:59 25.26024 51.62264 35 ft 22 kts 159°
2026-05-06 10:59 25.25876 51.62326 34 ft 24 kts 160°
2026-05-06 10:59 25.25724 51.62393 34 ft 24 kts 156°
2026-05-06 11:00 25.25588 51.62455 33 ft 20 kts 158°
2026-05-06 11:00 25.25517 51.62521 33 ft 11 kts 89°
2026-05-06 11:00 25.25543 51.62603 32 ft 12 kts 57°
2026-05-06 11:00 25.25607 51.62646 32 ft 9 kts 354°
2026-05-06 11:01 25.25624 51.62640 32 ft 2 kts 338°
2026-05-06 11:01 25.25625 51.62640 32 ft 0 kts 338°
2026-05-06 11:02 25.25826 51.62547 32 ft 68 kts 345°
2026-05-06 11:03 25.26486 51.62269 32 ft 130 kts 338°
2026-05-06 11:03 25.27463 51.61840 35 ft 167 kts 339°
2026-05-06 11:03 25.28561 51.61317 370 ft 171 kts 340°
2026-05-06 11:03 25.29661 51.60831 850 ft 173 kts 341°
2026-05-06 11:04 25.30792 51.60328 1286 ft 177 kts 333°
2026-05-06 11:04 25.31842 51.59624 1697 ft 177 kts 344°
2026-05-06 11:04 25.33045 51.59651 2138 ft 176 kts 25°
2026-05-06 11:04 25.33936 51.60543 2544 ft 176 kts 60°
2026-05-06 11:05 25.34509 51.61735 3005 ft 175 kts 62°
2026-05-06 11:05 25.34810 51.63048 3226 ft 190 kts 94°
2026-05-06 11:05 25.34288 51.64439 3345 ft 207 kts 129°
2026-05-06 11:05 25.33046 51.65302 3427 ft 221 kts 164°
2026-05-06 11:06 25.31469 51.65441 3503 ft 239 kts 183°
2026-05-06 11:06 25.29750 51.65223 3719 ft 259 kts 187°
2026-05-06 11:06 25.27884 51.64920 3929 ft 280 kts 188°
2026-05-06 11:06 25.25935 51.64605 4500 ft 284 kts 187°
2026-05-06 11:07 25.23973 51.64305 5102 ft 286 kts 187°
2026-05-06 11:07 25.21976 51.64013 5711 ft 290 kts 186°
2026-05-06 11:07 25.19971 51.63728 6356 ft 291 kts 186°
2026-05-06 11:07 25.17938 51.63441 6898 ft 296 kts 186°
2026-05-06 11:08 25.15889 51.63154 7524 ft 298 kts 186°
2026-05-06 11:08 25.13831 51.62865 8177 ft 298 kts 187°
2026-05-06 11:08 25.11761 51.62573 8777 ft 303 kts 187°
2026-05-06 11:08 25.09687 51.62282 9368 ft 306 kts 187°
2026-05-06 11:09 25.07575 51.61985 10022 ft 309 kts 187°
2026-05-06 11:09 25.05386 51.61674 10203 ft 327 kts 189°
2026-05-06 11:09 25.03182 51.60875 10348 ft 343 kts 211°
2026-05-06 11:09 25.01332 51.59162 10591 ft 354 kts 233°
2026-05-06 11:10 25.00188 51.56772 11218 ft 352 kts 255°
2026-05-06 11:10 24.99849 51.54135 11946 ft 348 kts 268°
2026-05-06 11:10 24.99806 51.51449 12535 ft 350 kts 270°
2026-05-06 11:10 24.99733 51.48753 13080 ft 355 kts 268°
2026-05-06 11:11 24.99553 51.46029 13737 ft 355 kts 266°
2026-05-06 11:11 24.99298 51.43312 14308 ft 358 kts 264°
2026-05-06 11:11 24.99002 51.40588 14871 ft 359 kts 264°
2026-05-06 11:11 24.98687 51.37826 15264 ft 367 kts 263°
2026-05-06 11:12 24.98364 51.35037 15807 ft 369 kts 263°
2026-05-06 11:12 24.98036 51.32212 16378 ft 370 kts 263°
2026-05-06 11:12 24.97712 51.29404 16997 ft 371 kts 263°
2026-05-06 11:12 24.97385 51.26573 17486 ft 374 kts 263°
2026-05-06 11:13 24.97056 51.23727 17968 ft 378 kts 263°
2026-05-06 11:13 24.96726 51.20870 18377 ft 382 kts 263°
2026-05-06 11:13 24.96389 51.17955 18786 ft 384 kts 263°
2026-05-06 11:13 24.96051 51.15044 19336 ft 383 kts 263°
2026-05-06 11:14 24.95712 51.12124 19747 ft 386 kts 263°
2026-05-06 11:14 24.95369 51.09176 20151 ft 389 kts 263°
2026-05-06 11:14 24.95024 51.06219 20593 ft 390 kts 263°
2026-05-06 11:14 24.94677 51.03250 21040 ft 391 kts 262°
2026-05-06 11:15 24.94328 51.00271 21472 ft 393 kts 262°
2026-05-06 11:15 24.93976 50.97273 21907 ft 394 kts 262°
2026-05-06 11:15 24.93623 50.94277 22333 ft 396 kts 262°
2026-05-06 11:15 24.93267 50.91262 22764 ft 398 kts 262°
2026-05-06 11:16 24.92909 50.88238 23188 ft 400 kts 262°
2026-05-06 11:16 24.92549 50.85189 23549 ft 402 kts 262°
2026-05-06 11:16 24.92186 50.82135 23925 ft 402 kts 262°
2026-05-06 11:16 24.91822 50.79068 24286 ft 403 kts 262°
2026-05-06 11:17 24.91457 50.76005 24647 ft 405 kts 262°
2026-05-06 11:17 24.91090 50.72927 24994 ft 406 kts 262°
2026-05-06 11:17 24.90725 50.69872 25347 ft 407 kts 262°
2026-05-06 11:17 24.90356 50.66784 25750 ft 407 kts 261°
2026-05-06 11:18 24.89985 50.63688 26184 ft 407 kts 261°
2026-05-06 11:18 24.89613 50.60594 26532 ft 409 kts 261°
2026-05-06 11:18 24.89238 50.57475 26916 ft 411 kts 261°
2026-05-06 11:18 24.88861 50.54350 27306 ft 412 kts 261°
2026-05-06 11:19 24.88483 50.51217 27705 ft 414 kts 261°
2026-05-06 11:19 24.88101 50.48062 28119 ft 416 kts 261°
2026-05-06 11:19 24.87724 50.44953 28526 ft 418 kts 261°
2026-05-06 11:19 24.87331 50.41713 28964 ft 420 kts 261°
2026-05-06 11:20 24.86947 50.38557 29421 ft 421 kts 261°
2026-05-06 11:20 24.86556 50.35350 29845 ft 424 kts 260°
2026-05-06 11:20 24.86159 50.32091 30232 ft 426 kts 260°
2026-05-06 11:20 24.85762 50.28849 30629 ft 428 kts 261°
2026-05-06 11:21 24.85364 50.25593 31016 ft 430 kts 261°
2026-05-06 11:21 24.84967 50.22361 31393 ft 431 kts 261°
2026-05-06 11:21 24.84565 50.19084 31777 ft 433 kts 261°
2026-05-06 11:21 24.84158 50.15783 32126 ft 436 kts 261°
2026-05-06 11:22 24.83749 50.12465 32488 ft 438 kts 261°
2026-05-06 11:22 24.83336 50.09129 32854 ft 440 kts 261°
2026-05-06 11:22 24.82921 50.05780 33227 ft 442 kts 261°
2026-05-06 11:22 24.82504 50.02413 33596 ft 445 kts 261°
2026-05-06 11:23 24.82083 49.99028 33939 ft 447 kts 261°
2026-05-06 11:23 24.81661 49.95640 34274 ft 448 kts 261°
2026-05-06 11:23 24.81237 49.92240 34607 ft 449 kts 261°
2026-05-06 11:23 24.80811 49.88833 34962 ft 448 kts 260°
2026-05-06 11:24 24.80387 49.85444 35307 ft 447 kts 260°
2026-05-06 11:24 24.79967 49.82095 35656 ft 445 kts 260°
2026-05-06 11:24 24.79543 49.78721 35810 ft 447 kts 260°
2026-05-06 11:25 24.78685 49.71920 35808 ft 449 kts 260°
2026-05-06 11:25 24.77823 49.65110 35811 ft 449 kts 260°
2026-05-06 11:26 24.76959 49.58301 35811 ft 449 kts 260°
2026-05-06 11:26 24.76089 49.51476 35807 ft 449 kts 260°
2026-05-06 11:27 24.75218 49.44670 35803 ft 449 kts 260°
2026-05-06 11:27 24.74352 49.37922 35796 ft 449 kts 260°
2026-05-06 11:28 24.73476 49.31130 35804 ft 449 kts 260°
2026-05-06 11:28 24.72597 49.24331 35805 ft 448 kts 260°
2026-05-06 11:29 24.71714 49.17529 35811 ft 448 kts 260°
2026-05-06 11:29 24.70837 49.10795 35809 ft 448 kts 260°
2026-05-06 11:30 24.69945 49.03973 35810 ft 447 kts 260°
2026-05-06 11:30 24.69057 48.97210 35816 ft 447 kts 260°
2026-05-06 11:31 24.68166 48.90443 35814 ft 447 kts 260°
2026-05-06 11:31 24.67278 48.83720 35809 ft 447 kts 260°
2026-05-06 11:32 24.66382 48.76962 35816 ft 447 kts 260°
2026-05-06 11:32 24.65482 48.70200 35814 ft 447 kts 260°
2026-05-06 11:33 24.64579 48.63441 35833 ft 447 kts 259°
2026-05-06 11:33 24.63674 48.56687 35830 ft 447 kts 259°
2026-05-06 11:34 24.62767 48.49937 35829 ft 446 kts 259°
2026-05-06 11:34 24.62010 48.44329 35833 ft 446 kts 259°
2026-05-06 11:35 24.61097 48.37583 35832 ft 446 kts 259°
2026-05-06 11:35 24.60180 48.30831 35827 ft 446 kts 259°
2026-05-06 11:36 24.59263 48.24101 35852 ft 445 kts 259°
2026-05-06 11:36 24.58344 48.17380 35866 ft 445 kts 259°
2026-05-06 11:37 24.57423 48.10665 35856 ft 444 kts 259°
2026-05-06 11:37 24.56500 48.03961 35847 ft 443 kts 259°
2026-05-06 11:38 24.55581 47.97308 35855 ft 443 kts 259°
2026-05-06 11:38 24.54655 47.90623 35844 ft 443 kts 259°
2026-05-06 11:39 24.53730 47.83970 35859 ft 443 kts 259°
2026-05-06 11:39 24.52797 47.77285 35871 ft 443 kts 259°
2026-05-06 11:40 24.51860 47.70590 35859 ft 443 kts 259°
2026-05-06 11:40 24.50928 47.63949 35869 ft 443 kts 259°
2026-05-06 11:41 24.49980 47.57220 35876 ft 443 kts 259°
2026-05-06 11:41 24.49040 47.50573 35868 ft 443 kts 259°
2026-05-06 11:42 24.48092 47.43886 35879 ft 443 kts 259°
2026-05-06 11:42 24.47141 47.37204 35877 ft 443 kts 259°
2026-05-06 11:43 24.46186 47.30512 35889 ft 443 kts 259°
2026-05-06 11:43 24.45230 47.23831 35898 ft 443 kts 259°
2026-05-06 11:44 24.43788 47.13802 35891 ft 443 kts 259°
2026-05-06 11:44 24.42824 47.07124 35911 ft 443 kts 258°
2026-05-06 11:45 24.41866 47.00509 35912 ft 442 kts 258°
2026-05-06 11:45 24.40899 46.93848 35902 ft 441 kts 258°
2026-05-06 11:46 24.39929 46.87190 35907 ft 442 kts 258°
2026-05-06 11:46 24.38956 46.80539 35914 ft 442 kts 258°
2026-05-06 11:47 24.37982 46.73892 35910 ft 442 kts 258°
2026-05-06 11:47 24.37003 46.67235 35920 ft 442 kts 258°
2026-05-06 11:48 24.36020 46.60574 35925 ft 442 kts 258°
2026-05-06 11:48 24.35032 46.53902 35929 ft 443 kts 258°
2026-05-06 11:49 24.34047 46.47269 35935 ft 443 kts 258°
2026-05-06 11:49 24.33049 46.40566 35939 ft 443 kts 258°
2026-05-06 11:50 24.32060 46.33946 35944 ft 442 kts 258°
2026-05-06 11:50 24.31063 46.27293 35940 ft 442 kts 258°
2026-05-06 11:51 24.30064 46.20647 35936 ft 441 kts 258°
2026-05-06 11:51 24.29063 46.14009 35926 ft 441 kts 258°
2026-05-06 11:52 24.28060 46.07372 35924 ft 441 kts 258°
2026-05-06 11:52 24.27054 46.00738 35949 ft 441 kts 258°
2026-05-06 11:53 24.26551 45.97430 36124 ft 440 kts 258°
2026-05-06 11:53 24.26046 45.94116 36374 ft 441 kts 258°
2026-05-06 11:53 24.25541 45.90807 36620 ft 440 kts 258°
2026-05-06 11:53 24.25036 45.87499 36868 ft 439 kts 258°
2026-05-06 11:54 24.24533 45.84207 37118 ft 438 kts 258°
2026-05-06 11:54 24.24028 45.80910 37379 ft 437 kts 258°
2026-05-06 11:54 24.23524 45.77627 37631 ft 437 kts 257°
2026-05-06 11:54 24.23022 45.74357 37879 ft 435 kts 257°
2026-05-06 11:55 24.22017 45.67827 37933 ft 433 kts 257°
2026-05-06 11:55 24.21017 45.61353 37928 ft 434 kts 257°
2026-05-06 11:56 24.20009 45.54847 37931 ft 432 kts 257°
2026-05-06 11:56 24.19003 45.48363 37935 ft 431 kts 257°
2026-05-06 11:57 24.17995 45.41896 37935 ft 431 kts 257°
2026-05-06 11:57 24.16983 45.35415 37934 ft 432 kts 257°
2026-05-06 11:58 24.15967 45.28932 37944 ft 432 kts 257°
2026-05-06 11:58 24.14948 45.22441 37948 ft 432 kts 257°
2026-05-06 11:59 24.13925 45.15953 37946 ft 432 kts 257°
2026-05-06 11:59 24.12900 45.09460 37947 ft 432 kts 257°
2026-05-06 12:00 24.11872 45.02977 37955 ft 432 kts 257°
2026-05-06 12:00 24.10841 44.96485 37961 ft 432 kts 257°
2026-05-06 12:01 24.09817 44.90055 37957 ft 431 kts 257°
2026-05-06 12:01 24.08784 44.83592 37947 ft 431 kts 257°
2026-05-06 12:02 24.07749 44.77132 37943 ft 430 kts 257°
2026-05-06 12:02 24.06713 44.70681 37937 ft 430 kts 257°
2026-05-06 12:03 24.05676 44.64248 37939 ft 430 kts 257°
2026-05-06 12:03 24.04635 44.57804 37910 ft 429 kts 257°
2026-05-06 12:04 24.03594 44.51376 37926 ft 430 kts 257°
2026-05-06 12:04 24.02546 44.44928 37927 ft 430 kts 257°
2026-05-06 12:05 24.01496 44.38479 37945 ft 431 kts 257°
2026-05-06 12:05 24.00449 44.32068 37944 ft 431 kts 257°
2026-05-06 12:06 23.99391 44.25612 37944 ft 430 kts 257°
2026-05-06 12:06 23.98335 44.19176 37941 ft 430 kts 257°
2026-05-06 12:07 23.97276 44.12750 37923 ft 429 kts 257°
2026-05-06 12:07 23.96218 44.06337 37915 ft 429 kts 257°
2026-05-06 12:08 23.95155 43.99919 37907 ft 428 kts 257°
2026-05-06 12:08 23.94093 43.93520 37925 ft 428 kts 257°
2026-05-06 12:09 23.93027 43.87114 37930 ft 428 kts 257°
2026-05-06 12:09 23.91958 43.80714 37940 ft 428 kts 257°
2026-05-06 12:10 23.90891 43.74332 37952 ft 427 kts 257°
2026-05-06 12:10 23.89819 43.67943 37918 ft 427 kts 257°
2026-05-06 12:11 23.88745 43.61559 37944 ft 428 kts 256°
2026-05-06 12:11 23.87674 43.55210 37969 ft 427 kts 257°
2026-05-06 12:12 23.86593 43.48815 37969 ft 427 kts 256°
2026-05-06 12:12 23.85511 43.42430 37993 ft 427 kts 256°
2026-05-06 12:13 23.84426 43.36048 37965 ft 427 kts 256°
2026-05-06 12:13 23.83339 43.29670 37966 ft 426 kts 256°
2026-05-06 12:14 23.82252 43.23309 37942 ft 426 kts 256°
2026-05-06 12:14 23.81162 43.16944 37968 ft 426 kts 256°
2026-05-06 12:15 23.80070 43.10583 37965 ft 426 kts 256°
2026-05-06 12:15 23.78981 43.04259 37970 ft 426 kts 256°
2026-05-06 12:16 23.77884 42.97903 37985 ft 426 kts 256°
2026-05-06 12:16 23.76784 42.91546 37983 ft 425 kts 256°
2026-05-06 12:17 23.75683 42.85196 37981 ft 425 kts 256°
2026-05-06 12:17 23.74581 42.78858 37954 ft 424 kts 256°
2026-05-06 12:18 23.73478 42.72535 37958 ft 425 kts 256°
2026-05-06 12:18 23.72377 42.66227 37969 ft 425 kts 256°
2026-05-06 12:19 23.71269 42.59891 37999 ft 426 kts 256°
2026-05-06 12:19 23.70156 42.53540 38002 ft 426 kts 256°
2026-05-06 12:20 23.69040 42.47187 37992 ft 426 kts 256°
2026-05-06 12:20 23.68110 42.41903 37995 ft 426 kts 256°
2026-05-06 12:21 23.66994 42.35567 37995 ft 425 kts 257°
2026-05-06 12:21 23.66591 42.29088 37996 ft 432 kts 268°
2026-05-06 12:22 23.67578 42.22575 37979 ft 441 kts 279°
2026-05-06 12:22 23.69439 42.16167 37984 ft 443 kts 281°
2026-05-06 12:23 23.71289 42.09770 37979 ft 442 kts 281°
2026-05-06 12:23 23.73120 42.03419 37973 ft 441 kts 281°
2026-05-06 12:24 23.74962 41.97032 37977 ft 441 kts 280°
2026-05-06 12:24 23.76808 41.90646 37960 ft 441 kts 280°
2026-05-06 12:25 23.78652 41.84259 37963 ft 441 kts 280°
2026-05-06 12:25 23.80490 41.77879 37959 ft 441 kts 280°
2026-05-06 12:26 23.82325 41.71493 37946 ft 441 kts 280°
2026-05-06 12:26 23.84161 41.65089 37960 ft 442 kts 280°
2026-05-06 12:27 23.85994 41.58686 37956 ft 442 kts 280°
2026-05-06 12:27 23.87826 41.52267 37963 ft 442 kts 280°
2026-05-06 12:28 23.89649 41.45845 37968 ft 442 kts 280°
2026-05-06 12:28 23.91471 41.39418 37967 ft 442 kts 280°
2026-05-06 12:29 23.93288 41.33001 37973 ft 442 kts 280°
2026-05-06 12:29 23.95107 41.26587 37969 ft 441 kts 280°
2026-05-06 12:30 23.96909 41.20226 37960 ft 440 kts 280°
2026-05-06 12:30 23.98715 41.13833 37954 ft 440 kts 280°
2026-05-06 12:31 24.00519 41.07437 37954 ft 439 kts 279°
2026-05-06 12:31 24.02318 41.01049 37949 ft 439 kts 279°
2026-05-06 12:32 24.04109 40.94676 37943 ft 438 kts 279°
2026-05-06 12:32 24.05899 40.88295 37935 ft 438 kts 279°
2026-05-06 12:33 24.07672 40.81962 37932 ft 438 kts 279°
2026-05-06 12:33 24.09464 40.75552 37933 ft 438 kts 279°
2026-05-06 12:34 24.11234 40.69212 37928 ft 438 kts 279°
2026-05-06 12:34 24.13010 40.62836 37927 ft 438 kts 279°
2026-05-06 12:35 24.14786 40.56447 37930 ft 438 kts 279°
2026-05-06 12:35 24.16871 40.50128 37927 ft 446 kts 287°
2026-05-06 12:36 24.19741 40.44052 37943 ft 450 kts 289°
2026-05-06 12:36 24.22627 40.38033 37938 ft 449 kts 289°
2026-05-06 12:37 24.25528 40.31967 37938 ft 448 kts 289°
2026-05-06 12:37 24.28422 40.25916 37932 ft 448 kts 289°
2026-05-06 12:38 24.31312 40.19867 37933 ft 447 kts 289°
2026-05-06 12:38 24.34198 40.13820 37929 ft 447 kts 289°
2026-05-06 12:39 24.37077 40.07781 37927 ft 446 kts 289°
2026-05-06 12:39 24.39950 40.01745 37952 ft 446 kts 289°
2026-05-06 12:40 24.42818 39.95710 37937 ft 446 kts 289°
2026-05-06 12:40 24.45687 39.89667 37942 ft 446 kts 289°
2026-05-06 12:41 24.48550 39.83630 37932 ft 446 kts 289°
2026-05-06 12:41 24.51409 39.77592 37941 ft 446 kts 289°
2026-05-06 12:42 24.54789 39.71839 37939 ft 460 kts 300°
2026-05-06 12:42 24.59423 39.66820 37937 ft 477 kts 312°
2026-05-06 12:43 24.64835 39.62504 37929 ft 481 kts 314°
2026-05-06 12:43 24.70252 39.58170 37932 ft 480 kts 314°
2026-05-06 12:44 24.75657 39.53843 37931 ft 481 kts 314°
2026-05-06 12:44 24.81076 39.49506 37933 ft 481 kts 314°
2026-05-06 12:45 24.86492 39.45169 37929 ft 481 kts 314°
2026-05-06 12:46 24.94575 39.38683 37934 ft 481 kts 314°
2026-05-06 12:46 24.99988 39.34333 37969 ft 482 kts 314°
2026-05-06 12:47 25.05406 39.29975 37947 ft 482 kts 314°
2026-05-06 12:47 25.10828 39.25610 37943 ft 482 kts 314°
2026-05-06 12:48 25.16252 39.21239 37942 ft 481 kts 314°
2026-05-06 12:48 25.21270 39.16508 37940 ft 468 kts 304°
2026-05-06 12:49 25.25343 39.11050 37928 ft 455 kts 295°
2026-05-06 12:49 25.28769 39.05202 37952 ft 453 kts 294°
2026-05-06 12:50 25.32200 38.99370 37950 ft 452 kts 294°
2026-05-06 12:50 25.35617 38.93533 37921 ft 452 kts 294°
2026-05-06 12:51 25.39032 38.87683 37942 ft 452 kts 294°
2026-05-06 12:51 25.42418 38.81872 37921 ft 452 kts 294°
2026-05-06 12:52 25.45821 38.76026 37919 ft 452 kts 294°
2026-05-06 12:52 25.49222 38.70175 37909 ft 451 kts 293°
2026-05-06 12:53 25.52614 38.64333 37908 ft 451 kts 294°
2026-05-06 12:53 25.56005 38.58483 37901 ft 451 kts 294°
2026-05-06 12:54 25.59399 38.52622 37903 ft 452 kts 294°
2026-05-06 12:54 25.62790 38.46760 37895 ft 452 kts 294°
2026-05-06 12:55 25.66175 38.40901 37897 ft 452 kts 294°
2026-05-06 12:55 25.69564 38.35028 37903 ft 452 kts 294°
2026-05-06 12:56 25.72948 38.29156 37903 ft 451 kts 294°
2026-05-06 12:56 25.76305 38.23321 37895 ft 451 kts 294°
2026-05-06 12:57 25.79674 38.17459 37874 ft 451 kts 294°
2026-05-06 12:57 25.83044 38.11587 37878 ft 452 kts 294°
2026-05-06 12:58 25.86418 38.05704 37890 ft 452 kts 294°
2026-05-06 12:58 25.89794 37.99809 37914 ft 452 kts 294°
2026-05-06 12:59 25.93168 37.93908 37934 ft 453 kts 294°
2026-05-06 12:59 25.96542 37.88000 37931 ft 453 kts 294°
2026-05-06 13:00 25.99388 37.81864 37929 ft 441 kts 284°
2026-05-06 13:00 26.01180 37.75417 37934 ft 433 kts 276°
2026-05-06 13:01 26.02127 37.68848 37945 ft 431 kts 273°
2026-05-06 13:01 26.03030 37.62243 37949 ft 432 kts 273°
2026-05-06 13:02 26.03928 37.55688 37942 ft 431 kts 273°
2026-05-06 13:02 26.04819 37.49110 37955 ft 430 kts 273°
2026-05-06 13:02 26.05260 37.45819 38195 ft 432 kts 273°
2026-05-06 13:03 26.05703 37.42508 38458 ft 432 kts 273°
2026-05-06 13:03 26.06145 37.39209 38706 ft 431 kts 273°
2026-05-06 13:03 26.06587 37.35903 38929 ft 431 kts 273°
2026-05-06 13:03 26.07027 37.32606 39152 ft 431 kts 273°
2026-05-06 13:04 26.07467 37.29301 39382 ft 431 kts 273°
2026-05-06 13:04 26.07904 37.26010 39608 ft 431 kts 273°
2026-05-06 13:04 26.08341 37.22708 39854 ft 431 kts 273°
2026-05-06 13:05 26.09208 37.16148 39919 ft 431 kts 273°
2026-05-06 13:05 26.10077 37.09559 39920 ft 430 kts 273°
2026-05-06 13:06 26.10943 37.02959 39918 ft 431 kts 273°
2026-05-06 13:06 26.11807 36.96346 39916 ft 432 kts 274°
2026-05-06 13:07 26.12524 36.90849 39919 ft 432 kts 274°
2026-05-06 13:07 26.13383 36.84244 39917 ft 431 kts 273°
2026-05-06 13:08 26.14238 36.77639 39914 ft 431 kts 273°
2026-05-06 13:08 26.15089 36.71038 39912 ft 431 kts 274°
2026-05-06 13:09 26.15933 36.64473 39913 ft 431 kts 274°
2026-05-06 13:09 26.16780 36.57854 39913 ft 431 kts 274°
2026-05-06 13:10 26.18949 36.49624 39918 ft 444 kts 290°
2026-05-06 13:10 26.22355 36.43785 39914 ft 458 kts 303°
2026-05-06 13:10 26.26804 36.38630 39912 ft 462 kts 307°
2026-05-06 13:11 26.35714 36.28334 39921 ft 462 kts 307°
2026-05-06 13:11 26.44590 36.18073 39935 ft 461 kts 307°
2026-05-06 13:12 26.49952 36.11864 39927 ft 460 kts 307°
2026-05-06 13:12 26.54362 36.06750 39920 ft 459 kts 307°
2026-05-06 13:13 26.58782 36.01618 39901 ft 458 kts 307°
2026-05-06 13:13 26.63201 35.96481 39904 ft 458 kts 307°
2026-05-06 13:14 26.67619 35.91339 39924 ft 458 kts 307°
2026-05-06 13:14 26.72042 35.86184 39926 ft 458 kts 307°
2026-05-06 13:15 26.76456 35.81035 39919 ft 459 kts 307°
2026-05-06 13:15 26.80869 35.75882 39925 ft 459 kts 307°
2026-05-06 13:16 26.89087 35.66268 39934 ft 459 kts 307°
2026-05-06 13:16 26.97917 35.55913 39933 ft 459 kts 307°
2026-05-06 13:17 27.06732 35.45553 39933 ft 459 kts 307°
2026-05-06 13:17 27.15529 35.35189 39929 ft 458 kts 307°
2026-05-06 13:18 27.24323 35.24801 39927 ft 458 kts 307°
2026-05-06 13:18 27.33074 35.14439 39923 ft 457 kts 307°
2026-05-06 13:19 27.41750 35.04142 39930 ft 458 kts 307°
2026-05-06 13:19 27.50507 34.93723 39937 ft 458 kts 307°
2026-05-06 13:20 27.59797 34.83819 39937 ft 461 kts 310°
2026-05-06 13:20 27.69161 34.73907 39946 ft 460 kts 310°
2026-05-06 13:21 27.78505 34.63995 39960 ft 460 kts 310°
2026-05-06 13:21 27.87816 34.54093 39966 ft 460 kts 310°
2026-05-06 13:22 27.97137 34.44161 39971 ft 459 kts 310°
2026-05-06 13:22 28.05478 34.33462 39965 ft 452 kts 303°
2026-05-06 13:23 28.13400 34.22525 40028 ft 452 kts 303°
2026-05-06 13:23 28.21357 34.11477 40017 ft 451 kts 304°
2026-05-06 13:24 28.29289 34.00438 40010 ft 450 kts 304°
2026-05-06 13:24 28.37207 33.89384 40011 ft 451 kts 304°
2026-05-06 13:25 28.45132 33.78296 40008 ft 451 kts 304°
2026-05-06 13:25 28.53040 33.67206 40005 ft 450 kts 304°
2026-05-06 13:26 28.60834 33.56262 39999 ft 447 kts 304°
2026-05-06 13:26 28.68640 33.45264 39982 ft 445 kts 304°
2026-05-06 13:27 28.76414 33.34280 39979 ft 445 kts 304°
2026-05-06 13:27 28.84183 33.23274 39983 ft 446 kts 304°
2026-05-06 13:28 28.91965 33.12221 40003 ft 447 kts 304°
2026-05-06 13:28 28.99747 33.01139 40007 ft 446 kts 304°
2026-05-06 13:29 29.07503 32.90064 40012 ft 446 kts 304°
2026-05-06 13:29 29.15194 32.79051 40023 ft 446 kts 304°
2026-05-06 13:30 29.22924 32.67954 40031 ft 445 kts 304°
2026-05-06 13:30 29.30631 32.56845 40037 ft 445 kts 303°
2026-05-06 13:31 29.38280 32.45686 40043 ft 445 kts 303°
2026-05-06 13:31 29.45938 32.34500 40067 ft 445 kts 303°
2026-05-06 13:32 29.53532 32.23377 40063 ft 445 kts 303°
2026-05-06 13:32 29.61157 32.12177 40071 ft 444 kts 303°
2026-05-06 13:33 29.68757 32.00984 40070 ft 444 kts 303°
2026-05-06 13:33 29.76348 31.89773 40071 ft 444 kts 303°
2026-05-06 13:34 29.83753 31.78443 40078 ft 442 kts 302°
2026-05-06 13:34 29.90959 31.67153 40069 ft 442 kts 302°
2026-05-06 13:35 29.98211 31.55929 40050 ft 442 kts 302°
2026-05-06 13:35 30.05572 31.44528 40053 ft 442 kts 302°
2026-05-06 13:36 30.13829 31.33937 40048 ft 448 kts 312°
2026-05-06 13:36 30.22946 31.24127 40073 ft 447 kts 312°
2026-05-06 13:37 30.32040 31.14329 40052 ft 447 kts 312°
2026-05-06 13:37 30.40868 31.04796 40055 ft 446 kts 312°
2026-05-06 13:38 30.49910 30.95007 40093 ft 447 kts 312°
2026-05-06 13:38 30.58996 30.85145 40069 ft 447 kts 312°
2026-05-06 13:39 30.68064 30.75276 40062 ft 446 kts 312°
2026-05-06 13:39 30.77106 30.65407 40064 ft 446 kts 312°
2026-05-06 13:40 30.86140 30.55520 40076 ft 446 kts 312°
2026-05-06 13:40 30.95176 30.45606 40074 ft 446 kts 312°
2026-05-06 13:41 31.04137 30.35737 40080 ft 445 kts 311°
2026-05-06 13:41 31.07997 30.30198 40078 ft 439 kts 300°
2026-05-06 13:41 31.10810 30.23913 40084 ft 435 kts 289°
2026-05-06 13:42 31.14557 30.10503 40090 ft 435 kts 286°
2026-05-06 13:42 31.18543 29.97136 40103 ft 438 kts 293°
2026-05-06 13:43 31.25051 29.85045 40108 ft 442 kts 303°
2026-05-06 13:43 31.32289 29.73407 40096 ft 443 kts 303°
2026-05-06 13:44 31.39524 29.61765 40100 ft 442 kts 303°
2026-05-06 13:44 31.46722 29.50149 40103 ft 442 kts 303°
2026-05-06 13:45 31.53941 29.38463 40104 ft 442 kts 303°
2026-05-06 13:45 31.64739 29.20895 40103 ft 443 kts 303°
2026-05-06 13:46 31.72040 29.09253 40112 ft 445 kts 308°
2026-05-06 13:46 31.81254 28.99396 40112 ft 449 kts 316°
2026-05-06 13:47 31.90931 28.90034 40106 ft 449 kts 316°
2026-05-06 13:47 32.00581 28.80703 40105 ft 449 kts 316°
2026-05-06 13:48 32.10172 28.71401 40111 ft 449 kts 317°
2026-05-06 13:48 32.19801 28.62038 40104 ft 448 kts 317°
2026-05-06 13:49 32.29426 28.52651 40103 ft 449 kts 317°
2026-05-06 13:49 32.39055 28.43234 40113 ft 449 kts 317°
2026-05-06 13:50 32.48631 28.33842 40102 ft 449 kts 317°
2026-05-06 13:50 32.58250 28.24380 40101 ft 449 kts 317°
2026-05-06 13:51 32.67859 28.14901 40102 ft 449 kts 317°
2026-05-06 13:51 32.77454 28.05408 40093 ft 449 kts 317°
2026-05-06 13:52 32.87001 27.95936 40101 ft 450 kts 317°
2026-05-06 13:52 32.96606 27.86378 40113 ft 450 kts 317°
2026-05-06 13:53 33.06214 27.76790 40111 ft 450 kts 317°
2026-05-06 13:53 33.15804 27.67191 40104 ft 449 kts 317°
2026-05-06 13:54 33.23733 27.59233 40098 ft 448 kts 317°
2026-05-06 13:54 33.34831 27.48061 40096 ft 448 kts 317°
2026-05-06 13:55 33.42809 27.40006 40099 ft 448 kts 317°
2026-05-06 13:55 33.52352 27.30346 40102 ft 448 kts 317°
2026-05-06 13:56 33.61876 27.20675 40106 ft 449 kts 317°
2026-05-06 13:56 33.71405 27.10970 40101 ft 449 kts 317°
2026-05-06 13:57 33.80849 27.01322 40103 ft 449 kts 317°
2026-05-06 13:57 33.90354 26.91584 40111 ft 449 kts 317°
2026-05-06 13:58 33.99858 26.81823 40096 ft 448 kts 317°
2026-05-06 13:58 34.09749 26.72597 40097 ft 450 kts 320°
2026-05-06 13:59 34.19683 26.63392 40119 ft 450 kts 320°
2026-05-06 13:59 34.29593 26.54146 40111 ft 449 kts 320°
2026-05-06 14:00 34.39498 26.44877 40110 ft 450 kts 320°
2026-05-06 14:00 34.49394 26.35588 40126 ft 450 kts 320°
2026-05-06 14:01 34.59280 26.26281 40105 ft 449 kts 320°
2026-05-06 14:01 34.69152 26.16957 40107 ft 450 kts 320°
2026-05-06 14:02 34.79028 26.07601 40120 ft 450 kts 320°
2026-05-06 14:02 34.88845 25.98271 40127 ft 450 kts 319°
2026-05-06 14:03 34.98711 25.88865 40112 ft 450 kts 319°
2026-05-06 14:03 35.08574 25.79433 40132 ft 450 kts 320°
2026-05-06 14:04 35.18412 25.69955 40127 ft 449 kts 319°
2026-05-06 14:04 35.28237 25.60481 40111 ft 449 kts 320°
2026-05-06 14:05 35.38069 25.50997 40120 ft 449 kts 320°
2026-05-06 14:05 35.47875 25.41502 40112 ft 449 kts 319°
2026-05-06 14:06 35.57679 25.31979 40107 ft 449 kts 320°
2026-05-06 14:06 35.67492 25.22416 40102 ft 450 kts 319°
2026-05-06 14:07 35.77312 25.12816 40105 ft 451 kts 319°
2026-05-06 14:07 35.87070 25.03246 40108 ft 451 kts 319°
2026-05-06 14:08 35.96889 24.93584 40102 ft 451 kts 319°
2026-05-06 14:08 36.06699 24.83900 40101 ft 451 kts 319°
2026-05-06 14:09 36.16499 24.74187 40095 ft 451 kts 319°
2026-05-06 14:09 36.26284 24.64457 40099 ft 451 kts 319°
2026-05-06 14:10 36.36004 24.54761 40093 ft 450 kts 319°
2026-05-06 14:10 36.45758 24.44997 40089 ft 450 kts 319°
2026-05-06 14:11 36.55450 24.35264 40081 ft 450 kts 319°
2026-05-06 14:11 36.65193 24.25447 40084 ft 451 kts 319°
2026-05-06 14:12 36.74946 24.15586 40084 ft 452 kts 319°
2026-05-06 14:12 36.84690 24.05702 40085 ft 452 kts 319°
2026-05-06 14:13 36.94456 23.95762 40076 ft 452 kts 319°
2026-05-06 14:13 37.04215 23.85810 40074 ft 452 kts 319°
2026-05-06 14:14 37.13972 23.75823 40089 ft 452 kts 319°
2026-05-06 14:14 37.23620 23.65913 40078 ft 452 kts 319°
2026-05-06 14:15 37.33362 23.55873 40080 ft 453 kts 319°
2026-05-06 14:15 37.43038 23.45866 40082 ft 453 kts 319°
2026-05-06 14:16 37.52795 23.35740 40056 ft 453 kts 319°
2026-05-06 14:16 37.62476 23.25658 40054 ft 453 kts 319°
2026-05-06 14:17 37.72198 23.15498 40064 ft 453 kts 319°
2026-05-06 14:17 37.81895 23.05328 40052 ft 453 kts 319°
2026-05-06 14:18 37.91599 22.95116 40053 ft 454 kts 319°
2026-05-06 14:18 38.01314 22.84890 40057 ft 454 kts 319°
2026-05-06 14:19 38.11039 22.74646 40048 ft 455 kts 319°
2026-05-06 14:19 38.20774 22.64346 40056 ft 455 kts 318°
2026-05-06 14:20 38.30508 22.54009 40065 ft 456 kts 318°
2026-05-06 14:20 38.40248 22.43628 40061 ft 456 kts 318°
2026-05-06 14:21 38.49983 22.33214 40061 ft 456 kts 318°
2026-05-06 14:21 38.59629 22.22859 40068 ft 456 kts 318°
2026-05-06 14:22 38.69343 22.12391 40078 ft 456 kts 317°
2026-05-06 14:22 38.79058 22.01885 40077 ft 457 kts 317°
2026-05-06 14:23 38.88782 21.91331 40082 ft 457 kts 317°
2026-05-06 14:23 38.98489 21.80756 40082 ft 457 kts 317°
2026-05-06 14:24 39.08202 21.70134 40084 ft 458 kts 317°
2026-05-06 14:24 39.17850 21.59542 40081 ft 458 kts 317°
2026-05-06 14:25 39.27547 21.48859 40086 ft 458 kts 317°
2026-05-06 14:25 39.37231 21.38147 40088 ft 458 kts 317°
2026-05-06 14:26 39.46886 21.27432 40068 ft 457 kts 317°
2026-05-06 14:26 39.56522 21.16696 40082 ft 457 kts 317°
2026-05-06 14:27 39.66149 21.05930 40094 ft 457 kts 316°
2026-05-06 14:27 39.75791 20.95101 40105 ft 457 kts 316°
2026-05-06 14:28 39.85410 20.84258 40098 ft 458 kts 316°
2026-05-06 14:28 39.94954 20.73459 40087 ft 458 kts 316°
2026-05-06 14:29 40.04542 20.62571 40074 ft 458 kts 316°
2026-05-06 14:29 40.10990 20.55478 40071 ft 459 kts 319°
2026-05-06 14:30 40.16058 20.50382 40079 ft 459 kts 319°
2026-05-06 14:30 40.21098 20.45251 40070 ft 459 kts 319°
2026-05-06 14:31 40.26116 20.40085 40070 ft 459 kts 319°
2026-05-06 14:31 40.31104 20.34931 40070 ft 459 kts 319°
2026-05-06 14:32 40.36119 20.29740 40073 ft 459 kts 318°
2026-05-06 14:32 40.41131 20.24542 40073 ft 459 kts 318°
2026-05-06 14:33 40.46133 20.19344 40071 ft 458 kts 318°
2026-05-06 14:33 40.51133 20.14139 40068 ft 458 kts 318°
2026-05-06 14:34 40.56132 20.08925 40055 ft 459 kts 318°
2026-05-06 14:34 40.61143 20.03687 40063 ft 460 kts 318°
2026-05-06 14:35 40.66145 19.98447 40072 ft 460 kts 318°
2026-05-06 14:35 40.71150 19.93197 40072 ft 460 kts 318°
2026-05-06 14:36 40.76151 19.87939 40076 ft 459 kts 318°
2026-05-06 14:36 40.81121 19.82703 40073 ft 460 kts 318°
2026-05-06 14:37 40.86133 19.77412 40073 ft 462 kts 318°
2026-05-06 14:37 40.91147 19.72109 40084 ft 462 kts 317°
2026-05-06 14:38 40.96173 19.66782 40090 ft 462 kts 317°
2026-05-06 14:38 41.00342 19.62356 40096 ft 462 kts 317°
2026-05-06 14:39 41.05357 19.57022 40086 ft 462 kts 317°
2026-05-06 14:39 41.11638 19.50326 40082 ft 462 kts 317°
2026-05-06 14:40 41.21652 19.39613 40084 ft 461 kts 317°
2026-05-06 14:40 41.31631 19.28896 40074 ft 461 kts 317°
2026-05-06 14:41 41.41528 19.18224 40076 ft 461 kts 317°
2026-05-06 14:41 41.51485 19.07443 40076 ft 461 kts 317°
2026-05-06 14:42 41.61454 18.96604 40071 ft 462 kts 317°
2026-05-06 14:42 41.71428 18.85716 40060 ft 463 kts 317°
2026-05-06 14:43 41.81375 18.74812 40058 ft 463 kts 317°
2026-05-06 14:43 41.91353 18.63828 40063 ft 463 kts 317°
2026-05-06 14:44 42.01104 18.52660 40061 ft 461 kts 311°
2026-05-06 14:45 42.13275 18.32798 40056 ft 459 kts 305°
2026-05-06 14:45 42.21260 18.19363 40062 ft 459 kts 305°
2026-05-06 14:46 42.29189 18.05938 40060 ft 459 kts 305°
2026-05-06 14:46 42.37139 17.92416 40053 ft 459 kts 305°
2026-05-06 14:47 42.45073 17.78857 40043 ft 459 kts 305°
2026-05-06 14:47 42.52995 17.65258 40035 ft 460 kts 304°
2026-05-06 14:48 42.60899 17.51629 40034 ft 460 kts 304°
2026-05-06 14:48 42.68793 17.37955 40039 ft 460 kts 304°
2026-05-06 14:49 42.76684 17.24220 40027 ft 460 kts 304°
2026-05-06 14:49 42.84519 17.10522 40022 ft 460 kts 304°
2026-05-06 14:50 42.92375 16.96721 40013 ft 461 kts 303°
2026-05-06 14:50 43.00243 16.82836 40017 ft 462 kts 303°
2026-05-06 14:51 43.08089 16.68927 40046 ft 463 kts 303°
2026-05-06 14:51 43.15933 16.54954 40043 ft 463 kts 303°
2026-05-06 14:52 43.23761 16.40943 40033 ft 462 kts 302°
2026-05-06 14:52 43.31560 16.26918 40014 ft 462 kts 302°
2026-05-06 14:53 43.39332 16.12872 40004 ft 461 kts 302°
2026-05-06 14:53 43.43467 16.05374 39997 ft 461 kts 302°
2026-05-06 14:54 43.47346 15.98325 40013 ft 462 kts 302°
2026-05-06 14:54 43.51224 15.91257 39972 ft 463 kts 302°
2026-05-06 14:55 43.55080 15.84213 39974 ft 462 kts 302°
2026-05-06 14:55 43.58949 15.77128 39964 ft 462 kts 302°
2026-05-06 14:56 43.62819 15.70025 39971 ft 463 kts 302°
2026-05-06 14:56 43.66685 15.62910 39987 ft 463 kts 302°
2026-05-06 14:57 43.70558 15.55765 39968 ft 464 kts 302°
2026-05-06 14:57 43.74396 15.48669 39964 ft 464 kts 302°
2026-05-06 14:58 43.78255 15.41515 39968 ft 464 kts 302°
2026-05-06 14:58 43.82112 15.34349 39971 ft 464 kts 302°
2026-05-06 14:59 43.85967 15.27168 39981 ft 464 kts 302°
2026-05-06 14:59 43.89821 15.19971 39972 ft 464 kts 302°
2026-05-06 15:00 43.93671 15.12766 39975 ft 464 kts 301°
2026-05-06 15:00 43.97486 15.05605 39973 ft 465 kts 301°
2026-05-06 15:01 44.01325 14.98382 39949 ft 465 kts 302°
2026-05-06 15:01 44.05164 14.91143 39932 ft 465 kts 301°
2026-05-06 15:02 44.09005 14.83880 39934 ft 465 kts 301°
2026-05-06 15:02 44.12820 14.76651 39939 ft 466 kts 301°
2026-05-06 15:03 44.16652 14.69369 39940 ft 466 kts 301°
2026-05-06 15:03 44.20486 14.62067 39944 ft 467 kts 301°
2026-05-06 15:04 44.24317 14.54750 39949 ft 467 kts 301°
2026-05-06 15:04 44.28146 14.47420 39949 ft 467 kts 301°
2026-05-06 15:05 44.31974 14.40073 39952 ft 468 kts 301°
2026-05-06 15:05 44.35796 14.32719 39957 ft 468 kts 301°
2026-05-06 15:06 44.39588 14.25405 39948 ft 468 kts 301°
2026-05-06 15:06 44.43401 14.18032 39945 ft 468 kts 301°
2026-05-06 15:07 44.47214 14.10637 39944 ft 468 kts 301°
2026-05-06 15:07 44.51020 14.03239 39951 ft 467 kts 301°
2026-05-06 15:08 44.54816 13.95841 39926 ft 468 kts 301°
2026-05-06 15:08 44.58612 13.88425 39945 ft 468 kts 301°
2026-05-06 15:09 44.62377 13.81050 39947 ft 468 kts 301°
2026-05-06 15:09 44.66166 13.73609 39946 ft 468 kts 301°
2026-05-06 15:10 44.69951 13.66157 39930 ft 468 kts 301°
2026-05-06 15:10 44.73734 13.58689 39929 ft 468 kts 301°
2026-05-06 15:11 44.77507 13.51221 39928 ft 468 kts 301°
2026-05-06 15:11 44.81283 13.43727 39914 ft 469 kts 301°
2026-05-06 15:12 44.85061 13.36211 39929 ft 469 kts 300°
2026-05-06 15:12 44.88825 13.28707 39912 ft 469 kts 300°
2026-05-06 15:13 44.92590 13.21190 39902 ft 469 kts 300°
2026-05-06 15:13 44.96163 13.13534 39900 ft 464 kts 294°
2026-05-06 15:14 44.98846 13.05365 39898 ft 459 kts 286°
2026-05-06 15:14 45.00613 12.96780 39893 ft 453 kts 278°
2026-05-06 15:15 45.02070 12.88106 39885 ft 454 kts 279°
2026-05-06 15:15 45.03530 12.79422 39880 ft 453 kts 279°
2026-05-06 15:16 45.04964 12.70747 39909 ft 453 kts 279°
2026-05-06 15:16 45.06385 12.62072 39888 ft 453 kts 278°
2026-05-06 15:17 45.07799 12.53400 39884 ft 452 kts 278°
2026-05-06 15:17 45.09206 12.44726 39885 ft 452 kts 278°
2026-05-06 15:18 45.10605 12.36057 39903 ft 451 kts 278°
2026-05-06 15:18 45.11995 12.27399 39885 ft 451 kts 278°
2026-05-06 15:19 45.13381 12.18720 39878 ft 451 kts 278°
2026-05-06 15:19 45.14756 12.10065 39877 ft 451 kts 278°
2026-05-06 15:20 45.16118 12.01449 39879 ft 451 kts 278°
2026-05-06 15:20 45.17482 11.92769 39864 ft 452 kts 278°
2026-05-06 15:21 45.18843 11.84065 39867 ft 452 kts 278°
2026-05-06 15:21 45.20202 11.75331 39880 ft 454 kts 277°
2026-05-06 15:22 45.21554 11.66590 39887 ft 454 kts 277°
2026-05-06 15:22 45.22901 11.57839 39884 ft 455 kts 277°
2026-05-06 15:23 45.24244 11.49063 39883 ft 455 kts 277°
2026-05-06 15:23 45.25580 11.40286 39884 ft 455 kts 277°
2026-05-06 15:24 45.26910 11.31504 39884 ft 455 kts 277°
2026-05-06 15:24 45.28231 11.22722 39883 ft 455 kts 277°
2026-05-06 15:25 45.29325 11.15422 39884 ft 455 kts 277°
2026-05-06 15:25 45.30636 11.06620 39883 ft 455 kts 277°
2026-05-06 15:26 45.31941 10.97815 39855 ft 455 kts 277°
2026-05-06 15:26 45.33232 10.89053 39857 ft 455 kts 277°
2026-05-06 15:27 45.34521 10.80240 39860 ft 455 kts 277°
2026-05-06 15:27 45.35805 10.71477 39859 ft 455 kts 277°
2026-05-06 15:28 45.37091 10.62666 39858 ft 455 kts 277°
2026-05-06 15:28 45.38359 10.53909 39836 ft 454 kts 277°
2026-05-06 15:29 45.39630 10.45075 39832 ft 455 kts 277°
2026-05-06 15:29 45.40889 10.36265 39829 ft 455 kts 276°
2026-05-06 15:30 45.42143 10.27444 39824 ft 454 kts 276°
2026-05-06 15:30 45.43389 10.18630 39828 ft 454 kts 276°
2026-05-06 15:31 45.44629 10.09803 39828 ft 455 kts 276°
2026-05-06 15:31 45.45862 10.00967 39827 ft 455 kts 276°
2026-05-06 15:32 45.47698 9.87725 39830 ft 454 kts 276°
2026-05-06 15:32 45.48907 9.78938 39828 ft 454 kts 276°
2026-05-06 15:33 45.50116 9.70092 40022 ft 455 kts 276°
2026-05-06 15:33 45.51323 9.61215 40073 ft 455 kts 276°
2026-05-06 15:34 45.52522 9.52340 40071 ft 456 kts 276°
2026-05-06 15:34 45.53715 9.43450 40074 ft 457 kts 276°
2026-05-06 15:35 45.54905 9.34529 39794 ft 458 kts 276°
2026-05-06 15:35 45.56077 9.25690 39800 ft 458 kts 276°
2026-05-06 15:36 45.57250 9.16789 39809 ft 459 kts 276°
2026-05-06 15:36 45.58424 9.07825 39812 ft 459 kts 276°
2026-05-06 15:37 45.59583 8.98904 39846 ft 460 kts 276°
2026-05-06 15:37 45.60740 8.89963 39824 ft 460 kts 276°
2026-05-06 15:38 45.61896 8.80962 39823 ft 460 kts 276°
2026-05-06 15:38 45.63044 8.71962 39824 ft 461 kts 276°
2026-05-06 15:39 45.64185 8.62958 39826 ft 461 kts 276°
2026-05-06 15:39 45.65320 8.53941 39840 ft 461 kts 276°
2026-05-06 15:40 45.66450 8.44906 39840 ft 461 kts 276°
2026-05-06 15:40 45.67566 8.35925 39859 ft 461 kts 276°
2026-05-06 15:41 45.68680 8.26903 39859 ft 461 kts 276°
2026-05-06 15:41 45.69787 8.17865 39856 ft 461 kts 276°
2026-05-06 15:42 45.70888 8.08816 39862 ft 461 kts 276°
2026-05-06 15:42 45.71981 7.99755 39856 ft 463 kts 276°
2026-05-06 15:43 45.73070 7.90678 39868 ft 463 kts 276°
2026-05-06 15:43 45.74156 7.81588 39878 ft 463 kts 276°
2026-05-06 15:44 45.75236 7.72473 39876 ft 464 kts 276°
2026-05-06 15:44 45.76308 7.63349 39894 ft 464 kts 276°
2026-05-06 15:45 45.77375 7.54213 39903 ft 465 kts 276°
2026-05-06 15:45 45.78477 7.45078 39865 ft 466 kts 279°
2026-05-06 15:46 45.80921 7.36394 39854 ft 477 kts 297°
2026-05-06 15:46 45.85202 7.29113 39860 ft 487 kts 315°
2026-05-06 15:47 45.90698 7.23354 39856 ft 490 kts 320°
2026-05-06 15:47 45.96267 7.17682 39878 ft 489 kts 320°
2026-05-06 15:48 46.01817 7.11997 39886 ft 491 kts 320°
2026-05-06 15:48 46.07389 7.06273 39912 ft 492 kts 320°
2026-05-06 15:49 46.12953 7.00551 39920 ft 494 kts 320°
2026-05-06 15:49 46.18547 6.94784 39920 ft 495 kts 320°
2026-05-06 15:50 46.24163 6.88981 39919 ft 496 kts 320°
2026-05-06 15:50 46.29750 6.83189 39934 ft 498 kts 320°
2026-05-06 15:51 46.35388 6.77332 39943 ft 499 kts 320°
2026-05-06 15:51 46.40898 6.71249 39925 ft 495 kts 314°
2026-05-06 15:52 46.45545 6.63962 39922 ft 489 kts 303°
2026-05-06 15:52 46.49187 6.55708 39918 ft 484 kts 296°
2026-05-06 15:53 46.52561 6.47220 39919 ft 485 kts 296°
2026-05-06 15:53 46.55925 6.38734 39915 ft 485 kts 296°
2026-05-06 15:54 46.59265 6.30229 39914 ft 484 kts 296°
2026-05-06 15:54 46.62591 6.21723 39913 ft 484 kts 296°
2026-05-06 15:55 46.65915 6.13193 39909 ft 484 kts 296°
2026-05-06 15:55 46.69212 6.04709 39906 ft 484 kts 296°
2026-05-06 15:56 46.72528 5.96147 39904 ft 484 kts 296°
2026-05-06 15:56 46.75831 5.87592 39903 ft 484 kts 296°
2026-05-06 15:57 46.79257 5.79116 39807 ft 486 kts 302°
2026-05-06 15:57 46.81375 5.75292 39584 ft 484 kts 309°
2026-05-06 15:57 46.83804 5.71881 39350 ft 486 kts 316°
2026-05-06 15:58 46.86521 5.68888 39140 ft 491 kts 323°
2026-05-06 15:58 46.89446 5.66382 38921 ft 495 kts 328°
2026-05-06 15:58 46.92477 5.63976 38698 ft 495 kts 328°
2026-05-06 15:58 46.95490 5.61549 38475 ft 495 kts 328°
2026-05-06 15:59 46.98507 5.59112 38204 ft 494 kts 328°
2026-05-06 15:59 47.01524 5.56673 37946 ft 494 kts 328°
2026-05-06 15:59 47.07553 5.51799 37906 ft 497 kts 328°
2026-05-06 16:00 47.13617 5.46890 37875 ft 498 kts 328°
2026-05-06 16:00 47.19691 5.41963 37874 ft 498 kts 328°
2026-05-06 16:01 47.25715 5.37061 37891 ft 497 kts 328°
2026-05-06 16:01 47.31765 5.32127 37881 ft 497 kts 328°
2026-05-06 16:02 47.37808 5.27190 37881 ft 497 kts 328°
2026-05-06 16:02 47.43862 5.22231 37880 ft 497 kts 328°
2026-05-06 16:03 47.46884 5.19751 37779 ft 494 kts 328°
2026-05-06 16:03 47.49885 5.17285 37210 ft 494 kts 328°
2026-05-06 16:03 47.52895 5.14808 36354 ft 496 kts 329°
2026-05-06 16:03 47.55925 5.12309 35434 ft 499 kts 329°
2026-05-06 16:04 47.58887 5.09620 34472 ft 501 kts 323°
2026-05-06 16:04 47.61598 5.06484 33371 ft 503 kts 317°
2026-05-06 16:04 47.64253 5.03100 32390 ft 502 kts 319°
2026-05-06 16:04 47.66902 4.99783 31685 ft 495 kts 319°
2026-05-06 16:05 47.69505 4.96530 31375 ft 482 kts 320°
2026-05-06 16:05 47.72023 4.93377 31207 ft 466 kts 320°
2026-05-06 16:05 47.74461 4.90313 31032 ft 452 kts 320°
2026-05-06 16:05 47.76839 4.87308 30429 ft 449 kts 320°
2026-05-06 16:06 47.79203 4.84308 29837 ft 445 kts 320°
2026-05-06 16:06 47.81552 4.81326 29220 ft 441 kts 320°
2026-05-06 16:06 47.83874 4.78373 28614 ft 437 kts 320°
2026-05-06 16:06 47.86173 4.75447 28002 ft 432 kts 320°
2026-05-06 16:07 47.88451 4.72545 27426 ft 428 kts 320°
2026-05-06 16:07 47.90701 4.69675 26808 ft 425 kts 320°
2026-05-06 16:07 47.92937 4.66821 26227 ft 421 kts 320°
2026-05-06 16:07 47.95152 4.63988 25641 ft 418 kts 320°
2026-05-06 16:08 47.97345 4.61181 25177 ft 411 kts 320°
2026-05-06 16:08 47.99472 4.58454 24630 ft 408 kts 320°
2026-05-06 16:08 48.01648 4.55662 24113 ft 404 kts 320°
2026-05-06 16:08 48.03769 4.52938 23628 ft 399 kts 320°
2026-05-06 16:09 48.05835 4.50283 23050 ft 395 kts 320°
2026-05-06 16:09 48.07909 4.47612 22479 ft 391 kts 320°
2026-05-06 16:09 48.09960 4.44971 21904 ft 387 kts 320°
2026-05-06 16:09 48.11999 4.42340 21313 ft 385 kts 319°
2026-05-06 16:10 48.14015 4.39737 20781 ft 380 kts 319°
2026-05-06 16:10 48.16010 4.37156 20235 ft 377 kts 320°
2026-05-06 16:10 48.17322 4.35460 19906 ft 374 kts 319°
2026-05-06 16:10 48.19286 4.32916 19322 ft 372 kts 320°
2026-05-06 16:11 48.21224 4.30404 18883 ft 366 kts 319°
2026-05-06 16:11 48.23144 4.27913 18515 ft 359 kts 319°
2026-05-06 16:11 48.24999 4.25502 18385 ft 345 kts 319°
2026-05-06 16:11 48.26696 4.23047 18271 ft 333 kts 311°
2026-05-06 16:12 48.28134 4.20403 18082 ft 323 kts 309°
2026-05-06 16:12 48.29550 4.17803 17641 ft 321 kts 309°
2026-05-06 16:12 48.30979 4.15211 17132 ft 322 kts 309°
2026-05-06 16:12 48.32400 4.12637 16769 ft 317 kts 309°
2026-05-06 16:13 48.33809 4.10075 16290 ft 318 kts 309°
2026-05-06 16:13 48.35214 4.07515 15880 ft 316 kts 309°
2026-05-06 16:13 48.36609 4.04965 15408 ft 316 kts 309°
2026-05-06 16:13 48.37978 4.02466 15202 ft 311 kts 309°
2026-05-06 16:14 48.39345 3.99963 14947 ft 308 kts 308°
2026-05-06 16:14 48.40702 3.97476 14665 ft 305 kts 308°
2026-05-06 16:14 48.42044 3.95013 14365 ft 305 kts 308°
2026-05-06 16:14 48.43387 3.92546 14090 ft 305 kts 309°
2026-05-06 16:15 48.44726 3.90087 13815 ft 303 kts 309°
2026-05-06 16:15 48.46064 3.87627 13520 ft 302 kts 308°
2026-05-06 16:15 48.47383 3.85196 13253 ft 298 kts 308°
2026-05-06 16:15 48.48687 3.82796 12976 ft 294 kts 308°
2026-05-06 16:16 48.49981 3.80411 12693 ft 292 kts 308°
2026-05-06 16:16 48.51268 3.78035 12440 ft 292 kts 309°
2026-05-06 16:16 48.52546 3.75676 12156 ft 291 kts 309°
2026-05-06 16:16 48.53820 3.73305 11880 ft 289 kts 307°
2026-05-06 16:17 48.54930 3.70787 11666 ft 289 kts 302°
2026-05-06 16:17 48.56008 3.68251 11452 ft 288 kts 302°
2026-05-06 16:17 48.57091 3.65735 11232 ft 285 kts 303°
2026-05-06 16:17 48.58172 3.63229 11033 ft 285 kts 303°
2026-05-06 16:18 48.59252 3.60723 10818 ft 283 kts 303°
2026-05-06 16:18 48.60328 3.58247 10602 ft 281 kts 306°
2026-05-06 16:18 48.61645 3.56086 10379 ft 280 kts 319°
2026-05-06 16:18 48.63265 3.54457 10166 ft 281 kts 330°
2026-05-06 16:19 48.64974 3.53032 9964 ft 280 kts 329°
2026-05-06 16:19 48.66658 3.51575 9749 ft 278 kts 329°
2026-05-06 16:19 48.68336 3.50108 9534 ft 277 kts 329°
2026-05-06 16:19 48.69966 3.48681 9433 ft 264 kts 329°
2026-05-06 16:20 48.71525 3.47320 9316 ft 253 kts 329°
2026-05-06 16:20 48.72997 3.46035 9212 ft 243 kts 329°
2026-05-06 16:20 48.74468 3.44734 8890 ft 242 kts 327°
2026-05-06 16:20 48.75816 3.43272 8618 ft 239 kts 322°
2026-05-06 16:21 48.77134 3.41743 8342 ft 237 kts 322°
2026-05-06 16:21 48.78439 3.40219 7975 ft 239 kts 322°
2026-05-06 16:21 48.79743 3.38681 7747 ft 234 kts 322°
2026-05-06 16:21 48.81033 3.37158 7451 ft 234 kts 322°
2026-05-06 16:22 48.82302 3.35646 7184 ft 232 kts 322°
2026-05-06 16:22 48.83581 3.34116 6853 ft 234 kts 322°
2026-05-06 16:22 48.84845 3.32596 6637 ft 231 kts 322°
2026-05-06 16:22 48.86104 3.31077 6367 ft 231 kts 322°
2026-05-06 16:23 48.87359 3.29550 6087 ft 230 kts 321°
2026-05-06 16:23 48.88507 3.27866 5825 ft 228 kts 313°
2026-05-06 16:23 48.89562 3.26067 5558 ft 227 kts 313°
2026-05-06 16:23 48.90609 3.24276 5273 ft 226 kts 313°
2026-05-06 16:24 48.91637 3.22511 5023 ft 226 kts 313°
2026-05-06 16:24 48.92652 3.20708 4889 ft 224 kts 308°
2026-05-06 16:24 48.93479 3.18693 4594 ft 224 kts 302°
2026-05-06 16:24 48.94254 3.16644 4332 ft 223 kts 302°
2026-05-06 16:25 48.95029 3.14599 4065 ft 223 kts 302°
2026-05-06 16:25 48.95801 3.12546 3987 ft 223 kts 302°
2026-05-06 16:25 48.96577 3.10508 3989 ft 222 kts 302°
2026-05-06 16:25 48.97350 3.08462 3988 ft 223 kts 302°
2026-05-06 16:26 48.98128 3.06422 3986 ft 223 kts 302°
2026-05-06 16:26 48.98908 3.04379 3989 ft 223 kts 302°
2026-05-06 16:26 48.99667 3.02378 3988 ft 222 kts 302°
2026-05-06 16:26 49.00456 3.00298 3988 ft 223 kts 302°
2026-05-06 16:27 49.01222 2.98271 3990 ft 224 kts 302°
2026-05-06 16:27 49.02000 2.96215 3999 ft 224 kts 302°
2026-05-06 16:27 49.02779 2.94164 3989 ft 223 kts 302°
2026-05-06 16:27 49.03556 2.92122 3989 ft 221 kts 302°
2026-05-06 16:28 49.04146 2.90031 3996 ft 211 kts 286°
2026-05-06 16:28 49.04311 2.87835 3987 ft 205 kts 273°
2026-05-06 16:28 49.04261 2.85782 3994 ft 181 kts 269°
2026-05-06 16:28 49.04167 2.83959 3982 ft 169 kts 269°
2026-05-06 16:29 49.04076 2.82188 3815 ft 167 kts 269°
2026-05-06 16:29 49.03980 2.80426 3595 ft 165 kts 269°
2026-05-06 16:29 49.03887 2.78694 3364 ft 163 kts 269°
2026-05-06 16:29 49.03794 2.76956 3144 ft 165 kts 269°
2026-05-06 16:30 49.03701 2.75223 2917 ft 163 kts 269°
2026-05-06 16:30 49.03638 2.74087 2772 ft 163 kts 268°
2026-05-06 16:30 49.03515 2.71791 2477 ft 162 kts 269°
2026-05-06 16:30 49.03422 2.70080 2256 ft 162 kts 267°
2026-05-06 16:31 49.03330 2.68374 2039 ft 160 kts 268°
2026-05-06 16:31 49.03240 2.66708 1831 ft 153 kts 268°
2026-05-06 16:31 49.03159 2.65207 1622 ft 137 kts 268°
2026-05-06 16:31 49.03082 2.63766 1437 ft 136 kts 269°
2026-05-06 16:32 49.03009 2.62355 1248 ft 133 kts 271°
2026-05-06 16:32 49.02926 2.60963 1062 ft 131 kts 269°
2026-05-06 16:32 49.02857 2.59572 876 ft 133 kts 269°
2026-05-06 16:32 49.02771 2.58171 724 ft 132 kts 268°
2026-05-06 16:33 49.02682 2.56784 524 ft 131 kts 270°
2026-05-06 16:33 49.02611 2.55398 379 ft 131 kts 271°
2026-05-06 16:33 49.02569 2.54217 365 ft 80 kts 264°
2026-05-06 16:34 49.02488 2.53442 363 ft 27 kts 241°
2026-05-06 16:34 49.02394 2.53229 367 ft 13 kts 236°
2026-05-06 16:34 49.02358 2.53142 366 ft 11 kts 238°
2026-05-06 16:34 49.02296 2.53043 368 ft 13 kts 208°
2026-05-06 16:35 49.02291 2.53039 367 ft 0 kts 206°
2026-05-06 16:36 49.02281 2.53031 368 ft 7 kts 206°
2026-05-06 16:36 49.02206 2.53016 365 ft 17 kts 179°
2026-05-06 16:36 49.02065 2.53025 367 ft 23 kts 177°
2026-05-06 16:37 49.01946 2.53037 361 ft 7 kts 175°
2026-05-06 16:37 49.01882 2.53065 368 ft 12 kts 141°
2026-05-06 16:37 49.01854 2.53189 361 ft 14 kts 92°
2026-05-06 16:37 49.01853 2.53346 360 ft 17 kts 86°
2026-05-06 16:38 49.01863 2.53540 365 ft 20 kts 83°
2026-05-06 16:38 49.01881 2.53758 367 ft 22 kts 85°
2026-05-06 16:38 49.01892 2.53999 365 ft 24 kts 88°
2026-05-06 16:38 49.01842 2.54138 366 ft 15 kts 142°
2026-05-06 16:39 49.01808 2.54284 365 ft 17 kts 101°
2026-05-06 16:39 49.01793 2.54369 361 ft 2 kts 109°
2026-05-06 16:39 49.01769 2.54444 362 ft 12 kts 121°
2026-05-06 16:39 49.01708 2.54571 368 ft 18 kts 136°
2026-05-06 16:40 49.01594 2.54695 364 ft 22 kts 154°
2026-05-06 16:40 49.01458 2.54739 364 ft 7 kts 178°
2026-05-06 16:40 49.01386 2.54732 367 ft 14 kts 189°
2026-05-06 16:40 49.01276 2.54687 363 ft 19 kts 200°
2026-05-06 16:41 49.01209 2.54536 366 ft 17 kts 271°
2026-05-06 16:41 49.01209 2.54495 366 ft 7 kts 269°
2026-05-06 16:41 49.01222 2.54382 361 ft 13 kts 302°
2026-05-06 16:41 49.01306 2.54323 360 ft 13 kts
2026-05-06 16:42 49.01390 2.54366 361 ft 12 kts 22°
2026-05-06 16:42 49.01471 2.54377 364 ft 12 kts 346°
2026-05-06 16:42 49.01540 2.54371 361 ft 4 kts 50°
2026-05-06 16:42 49.01553 2.54405 364 ft 0 kts 53°